Tillbaka till svenska Fidonet
English   Information   Debug  
FILM   0/18
FNEWS_PUBLISH   5083
FN_SYSOP   42250
FN_SYSOP_OLD1   71952
FTP_FIDO   0/2
FTSC_PUBLIC   0/13992
FUNNY   0/4886
GENEALOGY.EUR   0/71
GET_INFO   105
GOLDED   0/408
HAM   0/16958
HOLYSMOKE   0/6791
HOT_SITES   0/1
HTMLEDIT   0/71
HUB203   466
HUB_100   264
HUB_400   39
HUMOR   0/29
IC   0/2851
INTERNET   0/424
INTERUSER   0/3
IP_CONNECT   719
JAMNNTPD   0/233
JAMTLAND   0/47
KATTY_KORNER   0/41
LAN   0/16
LINUX-USER   0/19
LINUXHELP   0/1155
LINUX   0/22471
LINUX_BBS   0/957
mail   18.68
mail_fore_ok   249
MENSA   0/341
MODERATOR   0/102
MONTE   0/992
MOSCOW_OKLAHOMA   0/1245
MUFFIN   0/783
MUSIC   0/321
N203_STAT   940
N203_SYSCHAT   313
NET203   321
NET204   69
NET_DEV   0/10
NORD.ADMIN   0/101
NORD.CHAT   0/2572
NORD.FIDONET   189
NORD.HARDWARE   0/28
NORD.KULTUR   0/114
NORD.PROG   0/32
NORD.SOFTWARE   0/88
NORD.TEKNIK   0/58
NORD   0/453
OCCULT_CHAT   0/93
OS2BBS   0/787
OS2DOSBBS   0/580
OS2HW   0/42
OS2INET   0/37
OS2LAN   0/134
OS2PROG   0/36
OS2REXX   0/113
OS2USER-L   207
OS2   0/4837
OSDEBATE   0/18996
PASCAL   0/490
PERL   0/457
PHP   0/45
POINTS   0/405
POLITICS   0/29554
POL_INC   0/14731
PSION   103
R20_ADMIN   1134
R20_AMATORRADIO   0/2
R20_BEST_OF_FIDONET   17
R20_CHAT   0/899
R20_DEPP   0/3
R20_DEV   400
R20_ECHO2   1988
R20_ECHOPRES   0/35
R20_ESTAT   0/719
R20_FIDONETPROG...
...RAM.MYPOINT
  0/2
R20_FIDONETPROGRAM   0/22
R20_FIDONET   0/248
R20_FILEFIND   0/24
R20_FILEFOUND   0/22
R20_HIFI   0/3
R20_INFO2   3882
R20_INTERNET   0/12940
R20_INTRESSE   0/60
R20_INTR_KOM   0/99
R20_KANDIDAT.CHAT   42
R20_KANDIDAT   28
R20_KOM_DEV   112
R20_KONTROLL   0/13376
R20_KORSET   0/18
R20_LOKALTRAFIK   0/24
R20_MODERATOR   0/1852
R20_NC   76
R20_NET200   245
R20_NETWORK.OTH...
...ERNETS
  0/13
R20_OPERATIVSYS...
...TEM.LINUX
  0/45
R20_PROGRAMVAROR   0/1
R20_REC2NEC   534
R20_SFOSM   0/341
R20_SF   0/108
R20_SPRAK.ENGLISH   0/1
R20_SQUISH   107
R20_TEST   2
R20_WORST_OF_FIDONET   21
RAR   0/9
RA_MULTI   106
RA_UTIL   0/162
REGCON.EUR   0/2072
REGCON   0/13
SCIENCE   0/1206
SF   0/239
SHAREWARE_SUPPORT   0/5146
SHAREWRE   0/14
SIMPSONS   0/169
STATS_OLD1   0/2539.065
STATS_OLD2   0/2530
STATS_OLD3   0/2395.095
STATS_OLD4   0/1692.25
SURVIVOR   0/495
SYSOPS_CORNER   0/3
SYSOP   0/84
TAGLINES   0/112
TEAMOS2   0/4530
TECH   0/2617
TEST.444   0/105
TRAPDOOR   0/19
TREK   0/755
TUB   0/290
UFO   0/40
UNIX   0/1316
USA_EURLINK   0/102
USR_MODEMS   0/1
VATICAN   0/2740
VIETNAM_VETS   0/14
VIRUS   0/378
VIRUS_INFO   0/201
VISUAL_BASIC   0/473
WHITEHOUSE   0/5187
WIN2000   0/101
WIN32   0/30
WIN95   0/4291
WIN95_OLD1   0/70272
WINDOWS   0/1517
WWB_SYSOP   0/419
WWB_TECH   0/810
ZCC-PUBLIC   0/1
ZEC   4

 
4DOS   0/134
ABORTION   0/7
ALASKA_CHAT   0/506
ALLFIX_FILE   0/1313
ALLFIX_FILE_OLD1   0/7997
ALT_DOS   0/152
AMATEUR_RADIO   0/1039
AMIGASALE   0/14
AMIGA   0/331
AMIGA_INT   0/1
AMIGA_PROG   0/20
AMIGA_SYSOP   0/26
ANIME   0/15
ARGUS   0/924
ASCII_ART   0/340
ASIAN_LINK   0/651
ASTRONOMY   0/417
AUDIO   0/92
AUTOMOBILE_RACING   0/105
BABYLON5   0/17862
BAG   135
BATPOWER   0/361
BBBS.ENGLISH   0/382
BBSLAW   0/109
BBS_ADS   0/5290
BBS_INTERNET   0/507
BIBLE   0/3563
BINKD   0/1119
BINKLEY   0/215
BLUEWAVE   0/2173
CABLE_MODEMS   0/25
CBM   0/46
CDRECORD   0/66
CDROM   0/20
CLASSIC_COMPUTER   0/378
COMICS   0/15
CONSPRCY   0/899
COOKING   42806
COOKING_OLD1   0/24719
COOKING_OLD2   0/40862
COOKING_OLD3   0/37489
COOKING_OLD4   0/35496
COOKING_OLD5   9370
C_ECHO   0/189
C_PLUSPLUS   0/31
DIRTY_DOZEN   0/201
DOORGAMES   0/2396
DOS_INTERNET   0/196
duplikat   6103
ECHOLIST   0/18295
EC_SUPPORT   0/318
ELECTRONICS   0/359
ELEKTRONIK.GER   1534
ENET.LINGUISTIC   0/13
ENET.POLITICS   0/4
ENET.SOFT   0/11701
ENET.SYSOP   34568
ENET.TALKS   0/32
ENGLISH_TUTOR   0/2000
EVOLUTION   0/1335
FDECHO   0/217
FDN_ANNOUNCE   0/7068
FIDONEWS   25336
FIDONEWS_OLD1   0/49742
FIDONEWS_OLD2   0/35949
FIDONEWS_OLD3   0/30874
FIDONEWS_OLD4   0/37224
FIDO_SYSOP   12979
FIDO_UTIL   0/180
FILEFIND   0/209
FILEGATE   0/212
Möte HAM, 16958 texter
 lista första sista föregående nästa
Text 5086, 921 rader
Skriven 2012-02-16 23:30:42 av Amsat List (1:323/120.0)
Ärende: [keps] orb12047.amsa
============================
[keps] orb12047.amsa

Sender: keps-bounces@amsat.org
Return-Path: <keps-bounces@amsat.org>
X-Rcpt: craig.healy@chowda.com
X-UIDL: 1329452756.464

SB KEPS @ AMSAT  $ORB12047.O
Orbital Elements  12047.OSCAR

HR AMSAT ORBITAL ELEMENTS FOR OSCAR SATELLITES
FROM WA5QGD FORT WORTH,TX February 16, 2012
Send SUBSCRIBE KEPS/UNSUBSCRIBE KEPS to majordomo@amsat.org only
BID: ORB12047.O
TO ALL RADIO AMATEURS BT

Satellite: AO-07
Catalog number: 07530
Epoch time:      12046.56395926
Element set:    0309
Inclination:      101.3997 deg
RA of node:       048.5278 deg
Eccentricity:    0.0011920
Arg of perigee:   162.0250 deg
Mean anomaly:     198.1243 deg
Mean motion:   12.53587647 rev/day
Decay rate:       -2.7e-07 rev/day^2
Epoch rev:           70468
Checksum:              307

Satellite: FO-29
Catalog number: 24278
Epoch time:      12046.87148346
Element set:    0785
Inclination:      098.5749 deg
RA of node:       163.5824 deg
Eccentricity:    0.0350767
Arg of perigee:   346.1550 deg
Mean anomaly:     013.0158 deg
Mean motion:   13.52976112 rev/day
Decay rate:       -4.7e-07 rev/day^2
Epoch rev:           76541
Checksum:              332

Satellite: SO-33
Catalog number: 25509
Epoch time:      12046.70937487
Element set:    0168
Inclination:      031.4360 deg
RA of node:       306.7496 deg
Eccentricity:    0.0352758
Arg of perigee:   211.7131 deg
Mean anomaly:     146.1789 deg
Mean motion:   14.28668956 rev/day
Decay rate:       1.22e-06 rev/day^2
Epoch rev:           69512
Checksum:              327

Satellite: RS-22
Catalog number: 27939
Epoch time:      12047.74704503
Element set:      90
Inclination:      097.8224 deg
RA of node:       254.7244 deg
Eccentricity:    0.0012493
Arg of perigee:   291.7009 deg
Mean anomaly:     068.2871 deg
Mean motion:   14.63899896 rev/day
Decay rate:       4.88e-06 rev/day^2
Epoch rev:           44811
Checksum:              337

Satellite: VO-52
Catalog number: 28650
Epoch time:      12046.91559534
Element set:    0028
Inclination:      097.6128 deg
RA of node:       083.7886 deg
Eccentricity:    0.0027837
Arg of perigee:   082.4672 deg
Mean anomaly:     277.9733 deg
Mean motion:   14.82671442 rev/day
Decay rate:       4.83e-06 rev/day^2
Epoch rev:           36685
Checksum:              351

Satellite: HO-68
Catalog number: 36122
Epoch time:      12047.67952976
Element set:     204
Inclination:      100.3798 deg
RA of node:       109.4029 deg
Eccentricity:    0.0007588
Arg of perigee:   029.0499 deg
Mean anomaly:     331.1034 deg
Mean motion:   13.16293070 rev/day
Decay rate:       -4.4e-07 rev/day^2
Epoch rev:           10440
Checksum:              289

/EX
SB KEPS @ AMSAT  $ORB12047.D
Orbital Elements  12047.MICROS

HR AMSAT ORBITAL ELEMENTS FOR THE MICROSATS
FROM WA5QGD FORT WORTH,TX February 16, 2012
Send SUBSCRIBE KEPS/UNSUBSCRIBE KEPS to majordomo@amsat.org only
BID: ORB12047.D
TO ALL RADIO AMATEURS BT

Satellite: UO-11
Catalog number: 14781
Epoch time:      12047.86253731
Element set:     790
Inclination:      097.9704 deg
RA of node:       108.3634 deg
Eccentricity:    0.0010119
Arg of perigee:   067.9622 deg
Mean anomaly:     292.2663 deg
Mean motion:   14.80310306 rev/day
Decay rate:       4.24e-06 rev/day^2
Epoch rev:           50198
Checksum:              292

Satellite: AO-16
Catalog number: 20439
Epoch time:      12047.86182278
Element set:     398
Inclination:      098.4167 deg
RA of node:       354.7179 deg
Eccentricity:    0.0011243
Arg of perigee:   154.3636 deg
Mean anomaly:     205.8105 deg
Mean motion:   14.32017155 rev/day
Decay rate:        9.1e-07 rev/day^2
Epoch rev:           15263
Checksum:              299

Satellite: LO-19
Catalog number: 20442
Epoch time:      12046.85542169
Element set:    0324
Inclination:      098.3820 deg
RA of node:       357.1826 deg
Eccentricity:    0.0012373
Arg of perigee:   150.0830 deg
Mean anomaly:     210.1064 deg
Mean motion:   14.32237722 rev/day
Decay rate:       1.04e-06 rev/day^2
Epoch rev:           15267
Checksum:              262

Satellite: AO-27
Catalog number: 22825
Epoch time:      12047.59103240
Element set:      33
Inclination:      098.5623 deg
RA of node:       352.3791 deg
Eccentricity:    0.0007575
Arg of perigee:   277.0046 deg
Mean anomaly:     083.0272 deg
Mean motion:   14.29429955 rev/day
Decay rate:       1.47e-06 rev/day^2
Epoch rev:           95910
Checksum:              303

Satellite: IO-26
Catalog number: 22826
Epoch time:      12046.84522969
Element set:    0793
Inclination:      098.5568 deg
RA of node:       352.0501 deg
Eccentricity:    0.0008088
Arg of perigee:   274.4365 deg
Mean anomaly:     085.5893 deg
Mean motion:   14.29700000 rev/day
Decay rate:        7.5e-07 rev/day^2
Epoch rev:           95912
Checksum:              327

Satellite: GO-32
Catalog number: 25397
Epoch time:      12046.65212591
Element set:    0706
Inclination:      098.3514 deg
RA of node:       031.4742 deg
Eccentricity:    0.0000430
Arg of perigee:   312.6122 deg
Mean anomaly:     047.5018 deg
Mean motion:   14.23256476 rev/day
Decay rate:       -7.2e-07 rev/day^2
Epoch rev:           70659
Checksum:              276

Satellite: NO-44
Catalog number: 26931
Epoch time:      12046.55588887
Element set:    0971
Inclination:      067.0523 deg
RA of node:       076.3919 deg
Eccentricity:    0.0006251
Arg of perigee:   276.6384 deg
Mean anomaly:     083.3987 deg
Mean motion:   14.29759425 rev/day
Decay rate:      -1.50e-06 rev/day^2
Epoch rev:           54171
Checksum:              342

